Home   Weather   San Jose   Past weeks

Flag for USA Past Weather in San Jose, California, USA — Yesterday and Last 2 Weeks

Now
50 °F

Light rain. Mostly cloudy.


Feels Like: 45 °F
Forecast: 51 / 62 °F
Wind: 13 mph from East

Location: San Jose International Airport

Current Time: Dec 7, 2016 at 10:15:33 pm

Latest Report: Dec 7, 2016 at 9:53 pm


Visibility: 10 mi

Pressure: 30.10 "Hg

Humidity: 74%

Dew Point: 42 °F

Location of San JoseLocation

Past Weather in San Jose — Graph

°F

San Jose Temperature Yesterday

Maximum temperature yesterday: 56 °F (at 1:53 pm)
Minimum temperature yesterday: 42 °F (at 6:53 am)
Average temperature yesterday: 49 °F

High & Low Weather Summary for the Past Weeks

 TemperatureHumidityPressure
High65 °F (Dec 3, 1:53 pm)96% (Nov 23, 5:53 am)30.37 "Hg (Nov 23, 5:53 am)
Low38 °F (Dec 7, 6:53 am)21% (Dec 2, 1:53 pm)29.83 "Hg (Nov 26, 4:53 am)
Average52 °F68%30.12 "Hg
* Reported Nov 22 8:53 pm — Dec 7 8:53 pm, San Jose, Weather by CustomWeather, © 2016

Note: Actual official high and low records may vary slightly from our data, if they occured in-between our weather recording intervals... More about our weather records

Advertising

San Jose Weather History for the Previous 24 Hours

Scroll right to see more
 ConditionsComfort  
Time TempWeatherWind HumidityBarometerVisibility
8:53 pm
Wed, Dec 7
52 °FLight rain. Mostly cloudy.8 mph66%30.10 "Hg10 mi
7:53 pm52 °FMostly cloudy.13 mph64%30.09 "Hg10 mi
6:53 pm53 °FMostly cloudy.10 mph56%30.11 "Hg10 mi
5:53 pm54 °FMostly cloudy.9 mph51%30.10 "Hg10 mi
4:53 pm52 °FMostly cloudy.3 mph64%30.11 "Hg10 mi
3:53 pm54 °FMostly cloudy.No wind57%30.11 "Hg10 mi
2:53 pm54 °FMostly cloudy.3 mph55%30.12 "Hg10 mi
1:53 pm53 °FMostly cloudy.No wind56%30.13 "Hg10 mi
12:53 pm52 °FLight rain. Cloudy.No wind57%30.14 "Hg10 mi
11:53 am51 °FCloudy.3 mph59%30.16 "Hg10 mi
10:53 am49 °FCloudy.No wind64%30.19 "Hg10 mi
9:53 am46 °FBroken clouds.3 mph73%30.20 "Hg10 mi
8:53 am44 °FBroken clouds.No wind76%30.19 "Hg10 mi
7:53 am42 °FBroken clouds.5 mph82%30.18 "Hg10 mi
6:53 am38 °FPassing clouds.5 mph90%30.17 "Hg10 mi
5:53 am39 °FClear.3 mph86%30.15 "Hg10 mi
4:53 am40 °FClear.No wind80%30.14 "Hg10 mi
3:53 am41 °FClear.No wind80%30.14 "Hg10 mi
2:53 am41 °FClear.No wind80%30.14 "Hg10 mi
1:53 am42 °FClear.No wind79%30.15 "Hg10 mi
12:53 am44 °FClear.3 mph73%30.15 "Hg10 mi
11:53 pm
Tue, Dec 6
45 °FPassing clouds.3 mph74%30.14 "Hg10 mi
10:53 pm46 °FPassing clouds.5 mph71%30.14 "Hg10 mi
Weather by CustomWeather, © 2016

See weather overviewHow to use our weather pages